Showing default

UMBRA-12, 67371

Orbit data source: Space-Track

UMBRA-12, 67371 is a payload satellite owned by Umbra Labs (US) in SSO that was launched on Sun, 11 Jan 2026 UTC via an FALCON 9 launch vehicle from the Air Force Western Test Range (AFWTR). Payload-class satellites include a variety of spacecraft equipped with specific instruments for various scientific and technological missions. These include communications satellites like Starlink; space stations such as the ISS; scientific satellites like the Hubble; Earth observation satellites from companies like Planet Labs, Umbra, and HawkEye 360; GPS; miniature CubeSats for education and research; and military/defense satellites.

Loading next visibility...
Identifier
67371, 2026-004J
Orbit
SSO
Country
Flag of USUS
Related business
Manufacturer
Umbra Labs
Mission
Operational Commercial Radar Imaging
Bus & Motor
ESPASAT?, Unknown motor
Mass
84 kg wet, 79 kg dry
Launch date (UTC)
2026-01-11 (4 months ago)
Launch vehicle
FALCON 9
Launch site
Air Force Western Test Range (AFWTR)
Object type
Payload
Rocket body
Debris
Shape & HBR
Box + 2 Pan + 1 Dish, 1.2 m
Radar Cross Section
1.219 m²

Expand to show TLE details & history
Last TLE update: 6 hours ago

TLE from 6 hours ago
0 UMBRA-12
1 67371U 26004J   26146.53902856  .00004666  00000-0  50017-3 0  9991
2 67371  97.8011 145.6132 0005578 185.5614 174.5543 14.89113169 20081
Epoch: 2026-05-26T12:56Z
TLE epoch observation values (Epoch: 2026-05-26T12:56:12.067Z)
Latitude
0.00005°
Longitude
67.45189°
Altitude
607.618 km
Speed
7.553 km/s
True Right ascension
09h 42m 27s
True Declination
0° 00' 00"
Sunlit
Object was in daylight at epoch
Visualization orbit readout
Latitude
Unknown
Longitude
Unknown
Altitude
Unknown
Speed
Unknown
Apparent Right ascension
Unknown
Apparent Declination
Unknown
Sunlit
N/A
Visualization observer readout
Local Sidereal Time
04:33:04
Azimuth
Unknown
Elevation
Unknown
Doppler factor
Unknown
Orbital elements
Apogee altitude
601.621 km
Perigee altitude
593.838 km
Semi-major axis
6,975.866 km
Eccentricity
0.00056
Inclination
97.8011°
RAAN
145.6132°
Arg. of periapsis
185.5614°
True anomaly
174.56036°
Mean anomaly
174.5543°
Eccentric anomaly
174.55733°
Mean motion
3.72517 °/min
Orbital period
96.64 mins
BSTAR
0.00050017
Loading maneuver chart data...
Computing Atmospheric mass density...
Loading historical data...
Loading historical data...
Loading historical data...
Loading historical data...
Loading historical data...
Loading historical data...
Loading historical data...

Documentation

Showing up to 5 results
|